Location: Spring Creek
(38.2870°N, 100.2160°W)
Time: 08:00:35
(UTC+00:00)

COSMOS 2406 - Pass Details

Date: 08 May 2021
Orbit: 844 x 862 km, 71.0° (Epoch: 21 June)

Event Time Altitude Azimuth Distance (km) Brightness Sun altitude
Rises 05:18:31 0° 333° (NNW) 3,410 7.5 -31.6°
Reaches altitude 10° 05:21:00 10° 329° (NNW) 2,471 6.5 -31.7°
Enters shadow 05:25:24 47° 294° (WNW) 1,104 3.9 -32.0°
